| time (UTC) | temp F | wind direction | speed MPH | gust MPH | rain 1hr in | rain 24hr in | rain mn in | humidity % | barometer mb |
| 20260904205535 | 98 | 0.0 | 2.0 | 0.00 | 0.00 | 0.00 | 44 | 986.6 | |
| 20260904204515 | 98 | 136 | 1.0 | 3.0 | 0.00 | 0.00 | 0.00 | 44 | 986.6 |
| 20260904203516 | 98 | 158 | 2.0 | 3.0 | 0.00 | 0.00 | 0.00 | 44 | 986.7 |
| 20260904202515 | 98 | 87 | 1.0 | 4.0 | 0.00 | 0.00 | 0.00 | 44 | 986.9 |
| 20260904201515 | 98 | 142 | 1.0 | 3.0 | 0.00 | 0.00 | 0.00 | 44 | 987.1 |
| 20260904200516 | 98 | 149 | 1.0 | 4.0 | 0.00 | 0.00 | 0.00 | 44 | 987.2 |
| 20260904195516 | 99 | 157 | 2.0 | 4.0 | 0.00 | 0.00 | 0.00 | 44 | 987.3 |
| 20260904194515 | 98 | 158 | 0.0 | 2.0 | 0.00 | 0.00 | 0.00 | 44 | 987.4 |
| 20260904193515 | 98 | 143 | 1.0 | 3.0 | 0.00 | 0.00 | 0.00 | 45 | 987.5 |
| 20260904192516 | 98 | 118 | 1.0 | 5.0 | 0.00 | 0.00 | 0.00 | 44 | 987.6 |
| 20260904191515 | 98 | 187 | 0.0 | 4.0 | 0.00 | 0.00 | 0.00 | 45 | 987.8 |
| 20260904190515 | 98 | 257 | 1.0 | 6.0 | 0.00 | 0.00 | 0.00 | 44 | 987.9 |
| 20260904185515 | 96 | 85 | 1.0 | 5.0 | 0.00 | 0.00 | 0.00 | 45 | 988.0 |
| 20260904184515 | 97 | 145 | 3.0 | 5.0 | 0.00 | 0.00 | 0.00 | 44 | 988.2 |
| 20260904183515 | 97 | 161 | 1.0 | 3.0 | 0.00 | 0.00 | 0.00 | 44 | 988.4 |
| 20260904182515 | 96 | 155 | 1.0 | 3.0 | 0.00 | 0.00 | 0.00 | 48 | 988.4 |
| 20260904181535 | 96 | 136 | 3.0 | 6.0 | 0.00 | 0.00 | 0.00 | 48 | 988.5 |
| 20260904180515 | 95 | 0.0 | 0.0 | 0.00 | 0.00 | 0.00 | 51 | 988.7 | |
| 20260904175535 | 96 | 157 | 0.0 | 1.0 | 0.00 | 0.00 | 0.00 | 50 | 988.9 |
| 20260904174515 | 95 | 188 | 0.0 | 1.0 | 0.00 | 0.00 | 0.00 | 50 | 989.0 |
| 20260904173515 | 95 | 215 | 0.0 | 4.0 | 0.00 | 0.00 | 0.00 | 50 | 989.2 |
| 20260904172515 | 94 | 190 | 0.0 | 2.0 | 0.00 | 0.00 | 0.00 | 53 | 989.3 |
| 20260904171515 | 93 | 126 | 0.0 | 4.0 | 0.00 | 0.00 | 0.00 | 54 | 989.4 |
| 20260904170515 | 92 | 189 | 0.0 | 3.0 | 0.00 | 0.00 | 0.00 | 58 | 989.5 |
| 20260904165515 | 92 | 161 | 2.0 | 4.0 | 0.00 | 0.00 | 0.00 | 58 | 989.5 |
| 20260904164515 | 91 | 176 | 1.0 | 2.0 | 0.00 | 0.00 | 0.00 | 60 | 989.6 |
| 20260904163515 | 90 | 165 | 2.0 | 5.0 | 0.00 | 0.00 | 0.00 | 59 | 989.7 |
| 20260904162515 | 90 | 0.0 | 0.0 | 0.00 | 0.00 | 0.00 | 62 | 989.7 | |
| 20260904161515 | 89 | 0.0 | 6.0 | 0.00 | 0.00 | 0.00 | 63 | 989.6 | |
| 20260904160515 | 89 | 192 | 1.0 | 3.0 | 0.00 | 0.00 | 0.00 | 65 | 989.6 |
| 20260904155515 | 88 | 249 | 2.0 | 11.0 | 0.00 | 0.00 | 0.00 | 66 | 989.6 |
| 20260904154515 | 87 | 251 | 0.0 | 6.0 | 0.00 | 0.00 | 0.00 | 69 | 989.5 |
| 20260904153515 | 87 | 0.0 | 3.0 | 0.00 | 0.00 | 0.00 | 72 | 989.6 | |
| 20260904152515 | 87 | 190 | 1.0 | 5.0 | 0.00 | 0.00 | 0.00 | 73 | 989.5 |
| 20260904151535 | 86 | 220 | 2.0 | 6.0 | 0.00 | 0.00 | 0.00 | 75 | 989.5 |
| 20260904150515 | 86 | 227 | 1.0 | 3.0 | 0.00 | 0.00 | 0.00 | 77 | 989.4 |
| 20260904145515 | 85 | 166 | 0.0 | 1.0 | 0.00 | 0.00 | 0.00 | 80 | 989.5 |
| 20260904144515 | 84 | 142 | 1.0 | 4.0 | 0.00 | 0.00 | 0.00 | 81 | 989.4 |
| 20260904143515 | 84 | 0.0 | 0.0 | 0.00 | 0.00 | 0.00 | 84 | 989.4 | |
| 20260904142515 | 83 | 0.0 | 0.0 | 0.00 | 0.00 | 0.00 | 86 | 989.5 | |
| 20260904141515 | 82 | 0.0 | 1.0 | 0.00 | 0.00 | 0.00 | 88 | 989.5 | |
| 20260904140535 | 81 | 144 | 1.0 | 3.0 | 0.00 | 0.00 | 0.00 | 89 | 989.6 |
| 20260904135515 | 80 | 141 | 1.0 | 3.0 | 0.00 | 0.00 | 0.00 | 91 | 989.5 |
| 20260904134515 | 79 | 0.0 | 0.0 | 0.00 | 0.00 | 0.00 | 92 | 989.3 | |
| 20260904133515 | 79 | 0.0 | 1.0 | 0.00 | 0.00 | 0.00 | 93 | 989.2 | |
| 20260904132535 | 78 | 146 | 0.0 | 3.0 | 0.00 | 0.00 | 0.00 | 93 | 989.1 |
| 20260904131515 | 78 | 156 | 0.0 | 2.0 | 0.00 | 0.00 | 0.00 | 94 | 989.0 |
| 20260904130515 | 77 | 0.0 | 0.0 | 0.00 | 0.00 | 0.00 | 95 | 988.9 | |
| 20260904125515 | 77 | 0.0 | 0.0 | 0.00 | 0.00 | 0.00 | 95 | 988.8 | |
| 20260904124515 | 76 | 0.0 | 0.0 | 0.00 | 0.00 | 0.00 | 95 | 988.7 | |
| 20260904123535 | 76 | 0.0 | 0.0 | 0.00 | 0.00 | 0.00 | 96 | 988.7 | |
| 20260904122515 | 76 | 0.0 | 0.0 | 0.00 | 0.00 | 0.00 | 95 | 988.8 | |
| 20260904121515 | 75 | 0.0 | 0.0 | 0.00 | 0.00 | 0.00 | 95 | 988.6 | |
| 20260904120515 | 75 | 210 | 0.0 | 1.0 | 0.00 | 0.00 | 0.00 | 95 | 988.6 |
| 20260904115515 | 75 | 0.0 | 0.0 | 0.00 | 0.00 | 0.00 | 94 | 988.6 | |
| 20260904114515 | 76 | 0.0 | 0.0 | 0.00 | 0.00 | 0.00 | 94 | 988.5 | |
| 20260904113535 | 75 | 0.0 | 0.0 | 0.00 | 0.00 | 0.00 | 93 | 988.4 | |
| 20260904112515 | 75 | 0.0 | 0.0 | 0.00 | 0.00 | 0.00 | 93 | 988.4 | |
| 20260904111515 | 75 | 0.0 | 0.0 | 0.00 | 0.00 | 0.00 | 92 | 988.3 | |
| 20260904110535 | 76 | 0.0 | 0.0 | 0.00 | 0.00 | 0.00 | 92 | 988.3 | |
| 20260904105515 | 76 | 0.0 | 0.0 | 0.00 | 0.00 | 0.00 | 92 | 988.3 | |
| 20260904104555 | 76 | 0.0 | 0.0 | 0.00 | 0.00 | 0.00 | 91 | 988.1 | |
| 20260904103515 | 76 | 0.0 | 0.0 | 0.00 | 0.00 | 0.00 | 91 | 988.1 | |
| 20260904102515 | 76 | 0.0 | 0.0 | 0.00 | 0.00 | 0.00 | 91 | 988.0 | |
| 20260904101555 | 76 | 0.0 | 0.0 | 0.00 | 0.00 | 0.00 | 90 | 988.1 | |
| 20260904100515 | 76 | 0.0 | 0.0 | 0.00 | 0.00 | 0.00 | 90 | 988.0 | |
| 20260904095515 | 76 | 0.0 | 0.0 | 0.00 | 0.00 | 0.00 | 90 | 987.9 | |
| 20260904094535 | 77 | 0.0 | 0.0 | 0.00 | 0.00 | 0.00 | 89 | 987.9 | |
| 20260904093535 | 77 | 0.0 | 0.0 | 0.00 | 0.00 | 0.00 | 89 | 987.9 | |
| 20260904092535 | 77 | 0.0 | 0.0 | 0.00 | 0.00 | 0.00 | 88 | 988.0 | |
| 20260904091515 | 77 | 0.0 | 0.0 | 0.00 | 0.00 | 0.00 | 87 | 988.0 | |
| 20260904090515 | 78 | 0.0 | 0.0 | 0.00 | 0.00 | 0.00 | 87 | 988.1 | |
| 20260904085515 | 78 | 0.0 | 0.0 | 0.00 | 0.00 | 0.00 | 86 | 987.9 | |
| 20260904084515 | 78 | 0.0 | 0.0 | 0.00 | 0.00 | 0.00 | 86 | 987.9 | |
| 20260904083515 | 78 | 0.0 | 0.0 | 0.00 | 0.00 | 0.00 | 86 | 987.9 | |
| 20260904082515 | 78 | 0.0 | 0.0 | 0.00 | 0.00 | 0.00 | 85 | 987.8 | |
| 20260904081515 | 79 | 0.0 | 0.0 | 0.00 | 0.00 | 0.00 | 85 | 987.8 | |
| 20260904080515 | 79 | 0.0 | 0.0 | 0.00 | 0.00 | 0.00 | 85 | 987.8 | |
| 20260904075515 | 79 | 0.0 | 0.0 | 0.00 | 0.00 | 0.00 | 84 | 987.8 | |
| 20260904074515 | 79 | 0.0 | 0.0 | 0.00 | 0.00 | 0.00 | 84 | 987.7 | |
| 20260904073515 | 79 | 0.0 | 0.0 | 0.00 | 0.00 | 0.00 | 83 | 987.7 | |
| 20260904072555 | 79 | 0.0 | 0.0 | 0.00 | 0.00 | 0.00 | 83 | 987.8 | |
| 20260904071555 | 80 | 0.0 | 1.0 | 0.00 | 0.00 | 0.00 | 82 | 987.8 | |
| 20260904070515 | 80 | 0.0 | 0.0 | 0.00 | 0.00 | 0.00 | 81 | 987.8 | |
| 20260904065515 | 80 | 0.0 | 0.0 | 0.00 | 0.00 | 0.00 | 80 | 988.0 | |
| 20260904064535 | 80 | 0.0 | 0.0 | 0.00 | 0.00 | 0.00 | 80 | 988.1 | |
| 20260904063515 | 80 | 0.0 | 0.0 | 0.00 | 0.00 | 0.00 | 79 | 988.1 | |
| 20260904062515 | 80 | 0.0 | 0.0 | 0.00 | 0.00 | 0.00 | 78 | 988.0 | |
| 20260904061515 | 80 | 0.0 | 0.0 | 0.00 | 0.00 | 0.00 | 78 | 988.0 | |
| 20260904060515 | 80 | 0.0 | 0.0 | 0.00 | 0.00 | 0.00 | 77 | 988.1 | |
| 20260904055515 | 80 | 0.0 | 0.0 | 0.00 | 0.00 | 0.00 | 78 | 988.1 | |
| 20260904054515 | 80 | 0.0 | 1.0 | 0.00 | 0.00 | 0.00 | 77 | 988.1 | |
| 20260904053515 | 80 | 221 | 0.0 | 2.0 | 0.00 | 0.00 | 0.00 | 77 | 988.1 |
| 20260904052515 | 81 | 0.0 | 0.0 | 0.00 | 0.00 | 0.00 | 76 | 988.0 | |
| 20260904051515 | 81 | 0.0 | 0.0 | 0.00 | 0.00 | 0.00 | 76 | 988.0 | |
| 20260904050515 | 81 | 0.0 | 0.0 | 0.00 | 0.00 | 0.00 | 75 | 988.0 | |
| 20260904045515 | 81 | 104 | 0.0 | 1.0 | 0.00 | 0.00 | 0.00 | 74 | 987.9 |
| 20260904044516 | 81 | 0.0 | 0.0 | 0.00 | 0.00 | 0.00 | 73 | 987.9 | |
| 20260904043516 | 82 | 0.0 | 0.0 | 0.00 | 0.00 | 0.00 | 73 | 987.9 | |
| 20260904042515 | 82 | 136 | 0.0 | 3.0 | 0.00 | 0.00 | 0.00 | 73 | 987.9 |
| 20260904041515 | 82 | 225 | 0.0 | 1.0 | 0.00 | 0.00 | 0.00 | 71 | 988.0 |
| 20260904040515 | 82 | 0.0 | 0.0 | 0.00 | 0.00 | 0.00 | 70 | 988.0 | |
| 20260904035516 | 82 | 167 | 0.0 | 1.0 | 0.00 | 0.00 | 0.00 | 69 | 988.1 |
| 20260904034515 | 82 | 133 | 0.0 | 2.0 | 0.00 | 0.00 | 0.00 | 69 | 988.0 |
| 20260904033536 | 82 | 0.0 | 0.0 | 0.00 | 0.00 | 0.00 | 69 | 988.1 | |
| 20260904032515 | 82 | 190 | 1.0 | 3.0 | 0.00 | 0.00 | 0.00 | 68 | 988.1 |
| 20260904031515 | 82 | 0.0 | 0.0 | 0.00 | 0.00 | 0.00 | 69 | 988.0 | |
| 20260904030515 | 83 | 0.0 | 1.0 | 0.00 | 0.00 | 0.00 | 69 | 988.0 | |
| 20260904025516 | 83 | 0.0 | 0.0 | 0.00 | 0.00 | 0.00 | 70 | 987.8 | |
| 20260904024515 | 83 | 0.0 | 0.0 | 0.00 | 0.00 | 0.00 | 70 | 987.6 | |
| 20260904023516 | 83 | 136 | 0.0 | 2.0 | 0.00 | 0.00 | 0.00 | 70 | 987.6 |
| 20260904022516 | 83 | 145 | 1.0 | 3.0 | 0.00 | 0.00 | 0.00 | 71 | 987.4 |
| 20260904021535 | 83 | 196 | 1.0 | 3.0 | 0.00 | 0.00 | 0.00 | 72 | 987.3 |
| 20260904020516 | 84 | 0.0 | 0.0 | 0.00 | 0.00 | 0.00 | 72 | 987.1 | |
| 20260904015516 | 84 | 116 | 0.0 | 1.0 | 0.00 | 0.00 | 0.00 | 72 | 986.9 |
| 20260904014516 | 84 | 159 | 0.0 | 2.0 | 0.00 | 0.00 | 0.00 | 71 | 986.7 |
| 20260904013516 | 85 | 156 | 1.0 | 3.0 | 0.00 | 0.00 | 0.00 | 70 | 986.5 |
| 20260904012515 | 85 | 163 | 2.0 | 4.0 | 0.00 | 0.00 | 0.00 | 69 | 986.5 |
| 20260904011515 | 85 | 147 | 1.0 | 3.0 | 0.00 | 0.00 | 0.00 | 67 | 986.4 |
| 20260904010515 | 86 | 144 | 1.0 | 3.0 | 0.00 | 0.00 | 0.00 | 67 | 986.4 |
| 20260904005515 | 86 | 154 | 1.0 | 3.0 | 0.00 | 0.00 | 0.00 | 66 | 986.5 |
| 20260904004516 | 86 | 157 | 2.0 | 3.0 | 0.00 | 0.00 | 0.00 | 64 | 986.5 |
| 20260904003516 | 87 | 177 | 1.0 | 5.0 | 0.00 | 0.00 | 0.00 | 62 | 986.4 |
| 20260904002536 | 87 | 178 | 2.0 | 3.0 | 0.00 | 0.00 | 0.00 | 63 | 986.3 |
| 20260904001515 | 88 | 159 | 1.0 | 3.0 | 0.00 | 0.00 | 0.00 | 63 | 986.3 |
| 20260904000515 | 88 | 142 | 4.0 | 6.0 | 0.00 | 0.00 | 0.00 | 63 | 986.2 |
| 20260903235536 | 88 | 161 | 2.0 | 4.0 | 0.00 | 0.00 | 0.00 | 63 | 986.1 |
| 20260903234536 | 89 | 157 | 2.0 | 5.0 | 0.00 | 0.00 | 0.00 | 64 | 986.0 |
| 20260903233516 | 89 | 94 | 3.0 | 10.0 | 0.00 | 0.00 | 0.00 | 64 | 985.9 |
| 20260903232536 | 90 | 82 | 4.0 | 11.0 | 0.00 | 0.00 | 0.00 | 62 | 985.8 |
| 20260903231516 | 90 | 151 | 0.0 | 2.0 | 0.00 | 0.00 | 0.00 | 61 | 985.9 |
| 20260903230516 | 91 | 123 | 1.0 | 2.0 | 0.00 | 0.00 | 0.00 | 58 | 985.9 |
| 20260903225515 | 91 | 158 | 1.0 | 3.0 | 0.00 | 0.00 | 0.00 | 58 | 985.8 |
| 20260903224535 | 91 | 130 | 0.0 | 4.0 | 0.00 | 0.00 | 0.00 | 57 | 985.8 |
| 20260903223516 | 91 | 150 | 3.0 | 5.0 | 0.00 | 0.00 | 0.00 | 57 | 985.8 |
| 20260903222516 | 91 | 199 | 1.0 | 3.0 | 0.00 | 0.00 | 0.00 | 57 | 985.8 |
| 20260903221515 | 91 | 143 | 2.0 | 5.0 | 0.00 | 0.00 | 0.00 | 58 | 985.7 |
| 20260903220536 | 91 | 145 | 1.0 | 5.0 | 0.00 | 0.00 | 0.00 | 58 | 985.7 |
| 20260903215516 | 91 | 86 | 2.0 | 8.0 | 0.00 | 0.00 | 0.00 | 58 | 985.9 |
| 20260903214516 | 92 | 123 | 1.0 | 5.0 | 0.00 | 0.00 | 0.00 | 58 | 986.0 |
| 20260903213516 | 91 | 139 | 2.0 | 3.0 | 0.00 | 0.00 | 0.00 | 59 | 986.2 |
| 20260903212516 | 92 | 196 | 0.0 | 2.0 | 0.00 | 0.00 | 0.00 | 58 | 986.1 |
| 20260903211516 | 91 | 126 | 0.0 | 3.0 | 0.00 | 0.00 | 0.00 | 60 | 986.2 |
| 20260903210535 | 90 | 138 | 1.0 | 7.0 | 0.00 | 0.00 | 0.00 | 61 | 986.3 |